[[{"header":{"parameterUnit":"m.s-1","parameterCategory":2,"la1":30.2991,"la2":30.254,"lo1":-89.0895,"lo2":-89.0444,"dy":0.0017,"dx":0.0017,"nx":28,"ny":28,"refTime":"2025-07-11T21:00:00:Z","depth":"0","parameterNumber":2,"parameterNumberName":"U-component_of_CURRENTS"},"data":[0,0,0,0,0,0,0,0,0,0,0,0,0,0,0,0,0,0,0,0,0,0,0,0,0,0,0,0,0,0,0,0,0,0,0,0,0,0,0,0,0,0,0,0,0,0,0,0,0,0,0,0,0,0,0,0,0,0,0.1743,0.1743,0,0.1787,0.1787,0.1788,0.1757,0.1756,0.1755,0.1753,0.179,0.1792,0.1794,0,0,0,0,0,0,0,0,0,0,0,0,0,0.162,0.1622,0.1743,0.1743,0.1744,0.1787,0.1787,0.1788,0.1757,0.1756,0.1754,0.1753,0.1789,0.1791,0.1794,0,0,0,0,0,0,0,0,0,0,0,0,0,0.1669,0.1623,0.1743,0.1735,0.1735,0.1787,0.1787,0.1788,0.1758,0.1756,0.1754,0.1752,0.1788,0.1791,0.1794,0.1853,0,0,0.1804,0.1806,0,0,0,0,0,0,0,0,0.1666,0.1673,0.1735,0.1735,0.1735,0.1765,0.1757,0.181,0.1758,0.1748,0.1753,0.1751,0.1783,0.1786,0.1798,0.1855,0.1856,0.1805,0.1807,0.1808,0.1809,0,0,0,0,0,0,0,0.1663,0.1671,0.1759,0.1736,0.1736,0.1725,0.1729,0.1767,0.1775,0.1749,0.1747,0.1754,0.1782,0.1795,0.1798,0.1857,0.1804,0.1807,0.1809,0.1811,0.1994,0.1997,0,0,0,0,0,0,0.1663,0.1668,0.1758,0.1761,0.1696,0.1729,0.1734,0.1757,0.1775,0.1776,0.1756,0.1752,0.179,0.1795,0.1799,0.1925,0.1808,0.1811,0.1813,0.1991,0.1995,0.1998,0,0,0,0,0,0,0.166,0.1671,0.1756,0.1715,0.1725,0.1733,0.1759,0.1759,0.1773,0.178,0.178,0.177,0.1789,0.1795,0.1857,0.1924,0.1812,0.1815,0.1988,0.1992,0.1997,0.2141,0,0,0,0,0,0,0.1657,0.167,0.1695,0.1716,0.1727,0.1803,0.1761,0.1761,0.1781,0.1777,0.1793,0.1794,0.1788,0.1852,0.186,0.1926,0.1818,0.1984,0.199,0.1995,0.2132,0.2149,0.2164,0,0,0,0,0,0.1652,0.1709,0.1697,0.1708,0.1759,0.1806,0.1812,0.1808,0.1784,0.181,0.1824,0.1793,0.1892,0.1858,0.1866,0.1935,0.1981,0.1988,0.1995,0.2125,0.2146,0.2164,0,0,0,0,0,0,0.1679,0.1711,0.1698,0.1763,0.1783,0.1801,0.1835,0.1821,0.1852,0.185,0.1839,0.1844,0.1929,0.191,0.1872,0.2002,0.193,0.1938,0.2026,0.2045,0.2061,0.2099,0.1821,0,0,0,0,0,0.1694,0.1743,0.1756,0.1813,0.1823,0.1826,0.1845,0.1841,0.1866,0.1876,0.1885,0.1908,0.1966,0.1984,0.2023,0.2094,0.2135,0.214,0.2156,0.2169,0.2206,0.2321,0.2351,0.202,0.202,0.202,0,0,0.1724,0.1747,0.1776,0.1821,0.1836,0.1893,0.1834,0.1877,0.1929,0.188,0.1959,0.1973,0.2,0.2088,0.2122,0.2077,0.2292,0.2178,0.219,0.2219,0.2331,0.2364,0.2393,0.2024,0.2023,0.2023,0,0,0.1815,0.1824,0.1891,0.1919,0.1948,0.1951,0.1965,0.1984,0.1995,0.2066,0.2059,0.2121,0.2171,0.2222,0.2252,0.2381,0.2382,0.2372,0.2479,0.259,0.2619,0.2645,0.2769,0.2805,0.2368,0.2369,0.2369,0,0.1841,0.1929,0.1919,0.199,0.2019,0.1984,0.2053,0.2082,0.2119,0.2136,0.2108,0.2231,0.2253,0.2386,0.2437,0.2425,0.2482,0.2403,0.2614,0.264,0.2665,0.2785,0.2823,0.2377,0.2376,0.2375,0.2374,0,0.1989,0.2047,0.2093,0.2165,0.2193,0.2251,0.2267,0.2292,0.2284,0.2301,0.2402,0.2445,0.2508,0.2532,0.2536,0.2711,0.2699,0.2632,0.2569,0.2707,0.2825,0.2862,0.2388,0.2385,0.2383,0.2381,0,0,0.2056,0.217,0.2183,0.2222,0.2281,0.2313,0.2394,0.2443,0.2507,0.2532,0.2637,0.2735,0.2723,0.2761,0.2768,0.2872,0.311,0.2834,0.2836,0.2967,0.3382,0.3321,0.3354,0.3073,0.308,0.3085,0.3407,0,0.216,0.2306,0.2337,0.2455,0.2513,0.2503,0.2585,0.2621,0.2654,0.2751,0.2782,0.2898,0.282,0.2884,0.2972,0.3085,0.3208,0.303,0.3222,0.3229,0.3164,0.3395,0.3391,0.3672,0.3442,0.3448,0.3453,0,0.2277,0.2354,0.249,0.2568,0.2592,0.2657,0.2733,0.2812,0.2915,0.295,0.3028,0.3061,0.3231,0.3148,0.3391,0.3277,0.336,0.3428,0.344,0.336,0.3236,0.3491,0.3747,0.3627,0.3509,0.3504,0.35,0,0.2304,0.2438,0.2538,0.2579,0.2687,0.2723,0.2769,0.2858,0.2937,0.3101,0.3186,0.3321,0.3439,0.3548,0.3629,0.3553,0.3897,0.3796,0.3823,0.3819,0.3845,0.3831,0.4016,0.4006,0.4006,0.4005,0.4004,0,0.2397,0.2469,0.2554,0.2622,0.2722,0.2767,0.2896,0.2956,0.3097,0.3206,0.3295,0.3426,0.3551,0.3703,0.3754,0.391,0.3987,0.3928,0.3926,0.3893,0.3881,0.3791,0.3686,0.4017,0.4014,0.4012,0.401,0,0.2447,0.2505,0.2619,0.2726,0.2748,0.2825,0.2949,0.3042,0.3171,0.3334,0.3399,0.3588,0.38,0.3896,0.4131,0.4089,0.4151,0.4252,0.4207,0.4192,0.4061,0.3963,0.4015,0.3934,0.4393,0.4394,0.4395,0,0.2501,0.2573,0.2689,0.2732,0.2787,0.289,0.2953,0.3071,0.316,0.3398,0.3473,0.3743,0.387,0.419,0.4269,0.4418,0.4237,0.4446,0.4292,0.4134,0.4026,0.3801,0.3711,0.4418,0.4419,0.442,0.442,0,0.2604,0.2639,0.2723,0.2808,0.2868,0.295,0.3032,0.3101,0.3232,0.3364,0.3527,0.3668,0.4001,0.4154,0.4351,0.4438,0.427,0.4459,0.4346,0.4131,0.3861,0.3752,0.4114,0.4426,0.4426,0.4425,0.4425,0.4425,0.2649,0.2713,0.2787,0.2864,0.2917,0.2943,0.2973,0.3051,0.3155,0.3268,0.3462,0.3616,0.3923,0.4228,0.4309,0.4425,0.43,0.4362,0.4291,0.4103,0.3912,0.4274,0.4508,0.4508,0.4508,0.4507,0.4507,0,0.2665,0.2722,0.2818,0.2859,0.2876,0.2915,0.2966,0.2962,0.2998,0.3155,0.3272,0.3516,0.3783,0.4037,0.4283,0.4237,0.4113,0.4186,0.3918,0.3864,0.4296,0.4178,0.4289,0.4289,0.429,0.429,0.429,0.429,0.2659,0.2723,0.2773,0.2781,0.2795,0.2758,0.2751,0.2754,0.2827,0.2898,0.2993,0.3135,0.3491,0.3936,0.4087,0.4064,0.3782,0.3713,0.359,0.3929,0.3939,0.3948,0.3816,0.3849,0.3849,0.3115,0.311,0.3105]},{"header":{"parameterUnit":"m.s-1","parameterCategory":2,"la1":30.2991,"la2":30.254,"lo1":-89.0895,"lo2":-89.0444,"dy":0.0017,"dx":0.0017,"nx":28,"ny":28,"refTime":"2025-07-11T21:00:00:Z","depth":"0","parameterNumber":3,"parameterNumberName":"V-component_of_CURRENTS"},"data":[0,0,0,0,0,0,0,0,0,0,0,0,0,0,0,0,0,0,0,0,0,0,0,0,0,0,0,0,0,0,0,0,0,0,0,0,0,0,0,0,0,0,0,0,0,0,0,0,0,0,0,0,0,0,0,0,0,0,0.0512,0.0512,0,0.049,0.049,0.049,0.0476,0.0476,0.0476,0.0476,0.0457,0.0457,0.0456,0,0,0,0,0,0,0,0,0,0,0,0,0,0.0543,0.0543,0.0512,0.0512,0.0511,0.049,0.049,0.049,0.0476,0.0476,0.0476,0.0476,0.0457,0.0457,0.0456,0,0,0,0,0,0,0,0,0,0,0,0,0,0.0527,0.0543,0.0512,0.0502,0.0501,0.0491,0.049,0.049,0.0476,0.0476,0.0476,0.0476,0.0458,0.0457,0.0456,0.0455,0,0,0.0454,0.0454,0,0,0,0,0,0,0,0,0.0528,0.0525,0.0504,0.0503,0.0501,0.0486,0.0495,0.0478,0.0476,0.0485,0.0476,0.0476,0.0467,0.0466,0.0462,0.0454,0.0453,0.0454,0.0454,0.0454,0.0454,0,0,0,0,0,0,0,0.0529,0.0526,0.0503,0.0503,0.0502,0.0499,0.0497,0.0491,0.0477,0.0485,0.0484,0.0481,0.0467,0.0463,0.0461,0.0453,0.0454,0.0454,0.0454,0.0453,0.0476,0.0477,0,0,0,0,0,0,0.0531,0.0527,0.0504,0.0503,0.0515,0.0499,0.0496,0.0491,0.0477,0.0475,0.0481,0.0481,0.0464,0.0462,0.0461,0.054,0.0454,0.0453,0.0453,0.0475,0.0477,0.0478,0,0,0,0,0,0,0.0532,0.0529,0.0505,0.0515,0.0512,0.0499,0.0493,0.0491,0.0488,0.0475,0.0473,0.0481,0.0464,0.0462,0.0469,0.0536,0.0453,0.0452,0.0474,0.0476,0.0477,0.0646,0,0,0,0,0,0,0.0533,0.053,0.0531,0.0515,0.0511,0.0509,0.0493,0.049,0.0487,0.0485,0.0474,0.0472,0.0463,0.047,0.0469,0.0533,0.0452,0.0473,0.0475,0.0477,0.0639,0.0653,0.0665,0,0,0,0,0,0.0534,0.0544,0.0531,0.0528,0.0511,0.0509,0.0507,0.0497,0.0487,0.0493,0.0488,0.0472,0.0481,0.0471,0.0469,0.0535,0.0472,0.0474,0.0476,0.0633,0.065,0.0664,0,0,0,0,0,0,0.0568,0.0543,0.0528,0.0531,0.0522,0.0507,0.0512,0.05,0.0499,0.0498,0.0483,0.0482,0.0519,0.0484,0.0473,0.054,0.0475,0.0476,0.0594,0.061,0.0623,0.0682,0.0451,0,0,0,0,0,0.0572,0.0569,0.0546,0.0552,0.0544,0.0526,0.0524,0.0514,0.0509,0.0508,0.0502,0.0498,0.0525,0.0532,0.0532,0.0562,0.0525,0.0598,0.0611,0.0623,0.0666,0.065,0.0667,0.0485,0.0485,0.0485,0,0,0.0592,0.0574,0.0577,0.0558,0.0547,0.0574,0.0525,0.0524,0.0566,0.0506,0.0555,0.0541,0.0539,0.0589,0.0602,0.0571,0.0648,0.0626,0.0637,0.0674,0.0655,0.0673,0.0689,0.0486,0.0486,0.0486,0,0,0.064,0.0608,0.0626,0.0621,0.0604,0.0601,0.0602,0.0586,0.0596,0.0624,0.0614,0.0648,0.0643,0.069,0.0708,0.0785,0.0716,0.0759,0.0885,0.0869,0.0885,0.0899,0.0854,0.0863,0.0768,0.0769,0.0769,0,0.0666,0.069,0.0634,0.0655,0.0677,0.0622,0.0671,0.0676,0.0671,0.0702,0.0657,0.0724,0.0717,0.0836,0.0869,0.0828,0.0774,0.0836,0.0891,0.0904,0.0915,0.0866,0.0873,0.0777,0.0776,0.0775,0.0775,0,0.0739,0.0757,0.0769,0.0787,0.0794,0.0823,0.082,0.0839,0.0834,0.0844,0.0922,0.0917,0.0967,0.0968,0.0951,0.1047,0.0966,0.091,0.0864,0.0944,0.0886,0.0891,0.0789,0.0786,0.0784,0.0782,0,0,0.0813,0.0823,0.083,0.0866,0.0871,0.0891,0.096,0.1019,0.1094,0.1077,0.1186,0.1234,0.1211,0.1231,0.1211,0.1213,0.1243,0.1102,0.1097,0.1081,0.1172,0.1131,0.113,0.1175,0.1178,0.118,0.1092,0,0.0901,0.0976,0.096,0.1058,0.1105,0.1089,0.1169,0.1205,0.1235,0.1313,0.132,0.14,0.1316,0.1359,0.1349,0.129,0.1265,0.127,0.1078,0.1073,0.1046,0.114,0.1146,0.107,0.1096,0.1097,0.1097,0,0.0993,0.1034,0.1139,0.1212,0.1232,0.1282,0.1402,0.1468,0.1547,0.157,0.163,0.1612,0.1678,0.1561,0.1499,0.1492,0.1352,0.127,0.1263,0.1183,0.1044,0.0995,0.1077,0.0805,0.1103,0.1103,0.1102,0,0.109,0.1164,0.1258,0.1282,0.1354,0.1411,0.1463,0.1548,0.1638,0.1745,0.1821,0.1837,0.1887,0.1738,0.1569,0.1527,0.1444,0.1357,0.1183,0.1175,0.1129,0.1115,0.0957,0.1281,0.1281,0.1282,0.1282,0,0.1206,0.128,0.1306,0.1361,0.1482,0.1502,0.1656,0.1709,0.1833,0.1963,0.1963,0.2082,0.1929,0.1857,0.1639,0.1448,0.1487,0.1246,0.1176,0.1182,0.1174,0.0892,0.0747,0.1278,0.1279,0.128,0.128,0,0.1316,0.1328,0.143,0.1505,0.1525,0.1616,0.1742,0.1865,0.1972,0.215,0.2197,0.2277,0.2219,0.2012,0.1801,0.1577,0.1225,0.1258,0.1268,0.1203,0.081,0.0675,0.0506,0.0397,0.109,0.1089,0.1088,0,0.1396,0.1454,0.1521,0.156,0.1593,0.1713,0.1804,0.1918,0.205,0.2273,0.2371,0.2411,0.2456,0.2158,0.1796,0.1433,0.1186,0.1164,0.1114,0.0832,0.0628,0.0554,0.0469,0.1093,0.1092,0.1091,0.1091,0,0.1543,0.1541,0.1602,0.1674,0.1746,0.1867,0.1999,0.211,0.2276,0.2425,0.2613,0.2678,0.2489,0.2201,0.1744,0.1485,0.1006,0.1139,0.0856,0.0655,0.0558,0.0404,0.107,0.1085,0.1086,0.1086,0.1086,0.1087,0.1621,0.1667,0.1704,0.1778,0.1868,0.1998,0.21,0.2248,0.2437,0.2642,0.2729,0.2825,0.2452,0.1897,0.1568,0.0916,0.093,0.0678,0.0545,0.0501,0.0392,0.1045,0.0974,0.0974,0.0974,0.0974,0.0974,0,0.1682,0.1711,0.18,0.1871,0.1985,0.2022,0.2214,0.2319,0.25,0.2675,0.2813,0.2645,0.2151,0.1646,0.0825,0.0374,0.0245,0.0108,-0.0013,-0.0067,0.0516,0.051,0.0326,0.0326,0.0326,0.0327,0.0327,0.0327,0.1692,0.1752,0.179,0.1945,0.2015,0.2169,0.2266,0.2408,0.2546,0.2685,0.271,0.2745,0.2307,0.0909,-0.0028,-0.0216,-0.0567,-0.0611,-0.08,-0.0452,-0.0409,-0.0369,-0.0409,-0.0783,-0.0784,-0.1302,-0.1307,-0.1312]}],[{"header":{"parameterUnit":"m.s-1","parameterCategory":2,"la1":30.2991,"la2":30.254,"lo1":-89.0895,"lo2":-89.0444,"dy":0.0017,"dx":0.0017,"nx":28,"ny":28,"refTime":"2025-07-11T21:00:00:Z","depth":"2","parameterNumber":2,"parameterNumberName":"U-component_of_CURRENTS"},"data":[0,0,0,0,0,0,0,0,0,0,0,0,0,0,0,0,0,0,0,0,0,0,0,0,0,0,0,0,0,0,0,0,0,0,0,0,0,0,0,0,0,0,0,0,0,0,0,0,0,0,0,0,0,0,0,0,0,0,0.0506,0.0507,0,0.0519,0.0519,0.0519,0.0517,0.0517,0.0517,0.0517,0.0515,0.0515,0.0515,0,0,0,0,0,0,0,0,0,0,0,0,0,0.0458,0.0459,0.0506,0.0507,0.0507,0.0519,0.0519,0.0519,0.0517,0.0517,0.0517,0.0517,0.0515,0.0515,0.0515,0,0,0,0,0,0,0,0,0,0,0,0,0,0.0474,0.0459,0.0506,0.0509,0.0509,0.0519,0.0519,0.0519,0.0517,0.0517,0.0517,0.0517,0.0515,0.0515,0.0515,0.0518,0,0,0.0515,0.0515,0,0,0,0,0,0,0,0,0.0473,0.0476,0.0508,0.0509,0.0509,0.0518,0.0501,0.0518,0.0517,0.0512,0.0517,0.0517,0.0516,0.0516,0.0516,0.0518,0.0517,0.0515,0.0515,0.0515,0.0515,0,0,0,0,0,0,0,0.0472,0.0475,0.051,0.0508,0.0509,0.0501,0.0503,0.0504,0.0513,0.0513,0.0513,0.0517,0.0516,0.0516,0.0516,0.0517,0.0515,0.0515,0.0515,0.0516,0.0594,0.0595,0,0,0,0,0,0,0.0475,0.0474,0.0509,0.051,0.0492,0.0502,0.0505,0.0514,0.0513,0.0514,0.0517,0.0517,0.0516,0.0516,0.0516,0.0565,0.0515,0.0516,0.0516,0.0592,0.0594,0.0596,0,0,0,0,0,0,0.0474,0.0478,0.0509,0.0493,0.0497,0.0504,0.0513,0.0514,0.0517,0.0517,0.0517,0.052,0.0516,0.0516,0.0534,0.0563,0.0516,0.0516,0.0589,0.0592,0.0595,0.0632,0,0,0,0,0,0,0.0473,0.0478,0.0484,0.0494,0.0498,0.052,0.0514,0.0514,0.052,0.052,0.0519,0.0519,0.0516,0.0534,0.0534,0.0562,0.0516,0.0586,0.0591,0.0594,0.0628,0.0636,0.0643,0,0,0,0,0,0.0471,0.0483,0.0484,0.0488,0.0506,0.0521,0.0522,0.0525,0.0521,0.0526,0.0534,0.0519,0.0559,0.0535,0.0535,0.0563,0.0585,0.0589,0.0594,0.0625,0.0634,0.0642,0,0,0,0,0,0,0.0465,0.0484,0.0486,0.0503,0.0513,0.0521,0.0528,0.0527,0.0537,0.0538,0.0533,0.0534,0.0566,0.0562,0.0536,0.0602,0.0574,0.0579,0.0598,0.0607,0.0614,0.0603,0.0516,0,0,0,0,0,0.0467,0.0482,0.0495,0.0509,0.0515,0.052,0.0525,0.053,0.054,0.0543,0.0548,0.0562,0.0585,0.0592,0.0608,0.0631,0.0681,0.0656,0.0663,0.0669,0.0664,0.0778,0.0795,0.0611,0.0611,0.0611,0,0,0.047,0.0482,0.049,0.0509,0.0516,0.0537,0.0523,0.0537,0.0559,0.0542,0.0573,0.0583,0.0598,0.0635,0.0649,0.0633,0.0757,0.0675,0.068,0.0671,0.0785,0.0803,0.0819,0.0614,0.0614,0.0613,0,0,0.0488,0.0492,0.0513,0.0524,0.0541,0.0548,0.0554,0.0569,0.0578,0.0608,0.0611,0.0631,0.0665,0.0676,0.0688,0.0742,0.0793,0.0765,0.0786,0.0898,0.0914,0.0929,0.105,0.1075,0.0766,0.0766,0.0766,0,0.0491,0.0518,0.052,0.0544,0.0557,0.0556,0.0581,0.0595,0.0616,0.0629,0.0628,0.0688,0.0684,0.0731,0.075,0.0755,0.0844,0.0747,0.0908,0.0923,0.0937,0.1058,0.1085,0.0769,0.0768,0.0768,0.0768,0,0.0528,0.0548,0.056,0.0593,0.0606,0.0625,0.0644,0.0661,0.0673,0.0689,0.0737,0.0746,0.0788,0.0791,0.0782,0.0877,0.0919,0.0906,0.0882,0.0958,0.1081,0.1108,0.0772,0.0771,0.0771,0.077,0,0,0.0537,0.0579,0.0583,0.0601,0.0631,0.0646,0.0682,0.0713,0.0742,0.0769,0.0824,0.0841,0.0855,0.087,0.0874,0.0937,0.1106,0.0967,0.0972,0.1082,0.1398,0.1275,0.1294,0.1145,0.115,0.1153,0.1456,0,0.0563,0.0613,0.0629,0.0672,0.0694,0.0705,0.0741,0.0768,0.0797,0.0852,0.0868,0.0937,0.089,0.0938,0.099,0.1071,0.1177,0.1027,0.1312,0.132,0.1196,0.1319,0.1185,0.1429,0.1483,0.1487,0.149,0,0.059,0.062,0.0669,0.0708,0.0719,0.0752,0.0798,0.0832,0.0895,0.0932,0.0989,0.1031,0.1117,0.1087,0.1276,0.1201,0.1314,0.137,0.1384,0.1266,0.1246,0.1357,0.1477,0.1536,0.1533,0.1529,0.1526,0,0.0583,0.0641,0.0679,0.0694,0.0747,0.0773,0.0804,0.0855,0.089,0.1013,0.1072,0.1174,0.1246,0.139,0.1495,0.1436,0.1722,0.1663,0.1669,0.1664,0.1595,0.1574,0.1852,0.1852,0.1851,0.185,0.1849,0,0.0592,0.0618,0.0685,0.0701,0.075,0.0788,0.0845,0.089,0.0973,0.1038,0.1127,0.1199,0.1332,0.1486,0.159,0.1715,0.1829,0.17,0.1736,0.1605,0.1582,0.1686,0.1663,0.1861,0.1859,0.1857,0.1855,0,0.0564,0.0611,0.0647,0.0714,0.0746,0.0776,0.086,0.09,0.0995,0.1095,0.1161,0.1271,0.1432,0.1577,0.1808,0.1815,0.1973,0.2011,0.1841,0.1844,0.1822,0.1797,0.2035,0.2033,0.2032,0.2031,0.203,0,0.0552,0.0573,0.0644,0.0673,0.0706,0.077,0.0815,0.0907,0.0959,0.1121,0.1169,0.1343,0.1434,0.1695,0.1769,0.1967,0.2003,0.195,0.1751,0.1831,0.1844,0.1821,0.1799,0.1729,0.1726,0.1723,0.1721,0,0.0513,0.0538,0.0565,0.0635,0.0688,0.0747,0.0825,0.0867,0.0992,0.1088,0.1218,0.1315,0.1477,0.1552,0.1744,0.1811,0.1881,0.1887,0.2115,0.1638,0.1549,0.1556,0.1546,0.1696,0.1698,0.17,0.1701,0.1702,0.0466,0.0473,0.0523,0.0581,0.0654,0.0723,0.0754,0.0845,0.0936,0.1082,0.1192,0.1317,0.1382,0.1523,0.1593,0.1633,0.1699,0.1683,0.1692,0.1703,0.1548,0.1453,0.1558,0.156,0.1561,0.1563,0.1564,0,0.0393,0.0429,0.0475,0.0545,0.0607,0.0679,0.0761,0.0783,0.0874,0.1037,0.1167,0.1172,0.1264,0.1351,0.1373,0.1406,0.1381,0.1364,0.1347,0.1372,0.1394,0.1221,0.1147,0.1146,0.1145,0.1144,0,0,0.0352,0.0367,0.0399,0.0484,0.0562,0.0632,0.067,0.0718,0.0805,0.0902,0.101,0.1194,0.1288,0.1198,0.1207,0.1194,0.1255,0.1138,0.147,0.1471,0.1491,0.1578,0.1338,0,0,0,0,0]},{"header":{"parameterUnit":"m.s-1","parameterCategory":2,"la1":30.2991,"la2":30.254,"lo1":-89.0895,"lo2":-89.0444,"dy":0.0017,"dx":0.0017,"nx":28,"ny":28,"refTime":"2025-07-11T21:00:00:Z","depth":"2","parameterNumber":3,"parameterNumberName":"V-component_of_CURRENTS"},"data":[0,0,0,0,0,0,0,0,0,0,0,0,0,0,0,0,0,0,0,0,0,0,0,0,0,0,0,0,0,0,0,0,0,0,0,0,0,0,0,0,0,0,0,0,0,0,0,0,0,0,0,0,0,0,0,0,0,0,-0.0789,-0.0789,0,-0.0697,-0.0696,-0.0695,-0.0652,-0.0652,-0.0652,-0.0652,-0.0521,-0.0518,-0.0514,0,0,0,0,0,0,0,0,0,0,0,0,0,-0.086,-0.086,-0.0789,-0.0788,-0.0787,-0.0697,-0.0696,-0.0694,-0.0652,-0.0652,-0.0652,-0.0652,-0.0522,-0.0518,-0.0513,0,0,0,0,0,0,0,0,0,0,0,0,0,-0.0803,-0.0859,-0.079,-0.0757,-0.0753,-0.0698,-0.0696,-0.0694,-0.0651,-0.0652,-0.0652,-0.0653,-0.0524,-0.0518,-0.0513,-0.0471,0,0,-0.0496,-0.0493,0,0,0,0,0,0,0,0,-0.0807,-0.0801,-0.0762,-0.0759,-0.0755,-0.0688,-0.0673,-0.0618,-0.0651,-0.0688,-0.0652,-0.0653,-0.0574,-0.0565,-0.0544,-0.0465,-0.046,-0.0495,-0.0492,-0.049,-0.0488,0,0,0,0,0,0,0,-0.0811,-0.0804,-0.0751,-0.0761,-0.0757,-0.0723,-0.0716,-0.0662,-0.0628,-0.0685,-0.0682,-0.0675,-0.0572,-0.055,-0.0541,-0.0458,-0.0496,-0.0491,-0.0487,-0.0485,-0.0346,-0.0346,0,0,0,0,0,0,-0.0829,-0.0808,-0.0754,-0.0748,-0.0784,-0.0722,-0.0714,-0.0707,-0.0629,-0.0619,-0.0674,-0.0673,-0.0559,-0.0547,-0.0536,-0.0491,-0.049,-0.0484,-0.0481,-0.0346,-0.0346,-0.0346,0,0,0,0,0,0,-0.0831,-0.0825,-0.0758,-0.0778,-0.0767,-0.0721,-0.0714,-0.0705,-0.0672,-0.0622,-0.061,-0.065,-0.0559,-0.0544,-0.0483,-0.0486,-0.0482,-0.0477,-0.0347,-0.0346,-0.0346,-0.0396,0,0,0,0,0,0,-0.0833,-0.0826,-0.0816,-0.0779,-0.0767,-0.0712,-0.0713,-0.0703,-0.0669,-0.0666,-0.0597,-0.0586,-0.0558,-0.0492,-0.0478,-0.0478,-0.0472,-0.0347,-0.0347,-0.0346,-0.0395,-0.0398,-0.04,0,0,0,0,0,-0.0836,-0.0813,-0.0816,-0.0809,-0.0758,-0.0711,-0.07,-0.0668,-0.0668,-0.0642,-0.0607,-0.0587,-0.0478,-0.0486,-0.047,-0.0469,-0.0348,-0.0347,-0.0346,-0.0394,-0.0397,-0.04,0,0,0,0,0,0,-0.0826,-0.0806,-0.0808,-0.0778,-0.0747,-0.0704,-0.0673,-0.0661,-0.0612,-0.0606,-0.057,-0.0555,-0.0507,-0.0474,-0.0484,-0.0428,-0.0414,-0.041,-0.0457,-0.0459,-0.0461,-0.05,-0.0468,0,0,0,0,0,-0.0826,-0.0808,-0.0784,-0.0757,-0.0742,-0.071,-0.0684,-0.0665,-0.0624,-0.0603,-0.0559,-0.0519,-0.0492,-0.0464,-0.0422,-0.0378,-0.0369,-0.037,-0.0372,-0.0375,-0.0395,-0.0391,-0.0396,-0.0343,-0.0343,-0.0343,0,0,-0.0815,-0.08,-0.0789,-0.0755,-0.0727,-0.07,-0.0693,-0.0648,-0.0633,-0.0594,-0.0543,-0.0514,-0.048,-0.0443,-0.0419,-0.0414,-0.0379,-0.0374,-0.0376,-0.0396,-0.0391,-0.0396,-0.0401,-0.0342,-0.0343,-0.0343,0,0,-0.0779,-0.0771,-0.0745,-0.0723,-0.0685,-0.0672,-0.0661,-0.0614,-0.06,-0.0549,-0.0539,-0.0524,-0.0437,-0.0447,-0.0437,-0.0424,-0.0391,-0.0392,-0.0435,-0.043,-0.0435,-0.044,-0.0417,-0.0419,-0.0395,-0.0395,-0.0396,0,-0.0765,-0.0741,-0.0726,-0.0696,-0.0685,-0.0664,-0.0642,-0.0619,-0.0559,-0.0568,-0.0532,-0.0488,-0.0455,-0.0473,-0.0472,-0.0435,-0.0409,-0.043,-0.0436,-0.0441,-0.0444,-0.042,-0.0422,-0.0398,-0.0398,-0.0397,-0.0397,0,-0.0717,-0.0698,-0.0675,-0.0651,-0.0635,-0.0603,-0.0594,-0.0575,-0.0559,-0.0555,-0.0547,-0.0512,-0.0493,-0.0487,-0.047,-0.0492,-0.0456,-0.0441,-0.0437,-0.0454,-0.0426,-0.0427,-0.0401,-0.04,-0.04,-0.0399,0,0,-0.0689,-0.0653,-0.0645,-0.0645,-0.0616,-0.0601,-0.0594,-0.06,-0.0613,-0.0572,-0.0594,-0.0574,-0.0563,-0.0554,-0.0539,-0.0553,-0.0552,-0.0505,-0.0504,-0.0497,-0.0517,-0.0599,-0.0607,-0.0526,-0.0527,-0.0527,-0.048,0,-0.0659,-0.0616,-0.0609,-0.0587,-0.0575,-0.0583,-0.0586,-0.0595,-0.0592,-0.0598,-0.062,-0.0595,-0.0584,-0.0558,-0.0582,-0.0552,-0.0559,-0.0565,-0.049,-0.0488,-0.0573,-0.0614,-0.0562,-0.0526,-0.0481,-0.0481,-0.0481,0,-0.0624,-0.0605,-0.0579,-0.0591,-0.0588,-0.0574,-0.061,-0.0604,-0.0636,-0.0626,-0.0641,-0.0623,-0.064,-0.061,-0.0604,-0.0596,-0.0562,-0.0553,-0.0549,-0.0619,-0.0575,-0.0505,-0.053,-0.0483,-0.0483,-0.0483,-0.0483,0,-0.0634,-0.0597,-0.0588,-0.0582,-0.0578,-0.0586,-0.0588,-0.0616,-0.0615,-0.0626,-0.0603,-0.0638,-0.0617,-0.0603,-0.0554,-0.0562,-0.0542,-0.0543,-0.0597,-0.06,-0.0544,-0.0543,-0.055,-0.055,-0.055,-0.055,-0.055,0,-0.0627,-0.062,-0.0585,-0.0579,-0.0579,-0.0582,-0.0589,-0.0598,-0.0601,-0.0585,-0.0597,-0.0583,-0.0609,-0.0589,-0.0559,-0.0578,-0.0527,-0.063,-0.0613,-0.0558,-0.056,-0.0513,-0.051,-0.0548,-0.0549,-0.0549,-0.0549,0,-0.0642,-0.062,-0.0609,-0.0591,-0.0581,-0.058,-0.0555,-0.0557,-0.0545,-0.0517,-0.0495,-0.0536,-0.053,-0.0538,-0.0531,-0.0585,-0.0579,-0.0584,-0.0521,-0.0503,-0.0643,-0.0641,-0.069,-0.0693,-0.0695,-0.0698,-0.0699,0,-0.0644,-0.0636,-0.0604,-0.0584,-0.0567,-0.055,-0.0534,-0.0525,-0.0499,-0.047,-0.0448,-0.0465,-0.0463,-0.0524,-0.059,-0.0595,-0.0589,-0.0621,-0.0684,-0.0689,-0.0666,-0.0661,-0.0656,-0.0591,-0.0592,-0.0592,-0.0593,0,-0.0642,-0.063,-0.0612,-0.0566,-0.0537,-0.0509,-0.0467,-0.0432,-0.04,-0.0342,-0.0288,-0.0289,-0.0409,-0.0476,-0.058,-0.0595,-0.0636,-0.0646,-0.0627,-0.0603,-0.0604,-0.0579,-0.0575,-0.0598,-0.0598,-0.0597,-0.0597,-0.0597,-0.0627,-0.0611,-0.057,-0.0532,-0.0495,-0.0431,-0.0366,-0.0301,-0.0217,-0.008,-0.0152,-0.0102,-0.0317,-0.0435,-0.0531,-0.0658,-0.0696,-0.0739,-0.0732,-0.0726,-0.0763,-0.0773,-0.0803,-0.0803,-0.0804,-0.0804,-0.0805,0,-0.0587,-0.056,-0.0528,-0.0467,-0.0406,-0.0385,-0.0287,-0.0191,-0.0026,0.0041,0.0127,-0.0,-0.0129,-0.0313,-0.0507,-0.0695,-0.0653,-0.0746,-0.0637,-0.0633,-0.063,-0.0657,-0.067,-0.067,-0.067,-0.067,0,0,-0.0557,-0.0507,-0.049,-0.0375,-0.0314,-0.0175,-0.0081,0.0058,0.014,0.025,0.0294,0.0259,-0.0054,-0.0166,-0.0406,-0.0519,-0.0526,-0.054,-0.0635,-0.0476,-0.0469,-0.0623,-0.0664,0,0,0,0,0]}],[{"header":{"parameterUnit":"m.s-1","parameterCategory":2,"la1":30.2991,"la2":30.254,"lo1":-89.0895,"lo2":-89.0444,"dy":0.0017,"dx":0.0017,"nx":28,"ny":28,"refTime":"2025-07-11T21:00:00:Z","depth":"4","parameterNumber":2,"parameterNumberName":"U-component_of_CURRENTS"},"data":[0,0,0,0,0,0,0,0,0,0,0,0,0,0,0,0,0,0,0,0,0,0,0,0,0,0,0,0,0,0,0,0,0,0,0,0,0,0,0,0,0,0,0,0,0,0,0,0,0,0,0,0,0,0,0,0,0,0,0.0294,0.0294,0,0.0338,0.0338,0.0339,0.0381,0.0382,0.0382,0.0383,0.0433,0.0433,0.0434,0,0,0,0,0,0,0,0,0,0,0,0,0,0.0222,0.0223,0.0294,0.0294,0.0295,0.0338,0.0338,0.0339,0.0381,0.0382,0.0383,0.0384,0.0433,0.0433,0.0434,0,0,0,0,0,0,0,0,0,0,0,0,0,0.0256,0.0223,0.0293,0.0323,0.0327,0.0338,0.0338,0.0339,0.0381,0.0382,0.0383,0.0384,0.0432,0.0433,0.0434,0.0416,0,0,0.0437,0.0437,0,0,0,0,0,0,0,0,0.0254,0.0258,0.0318,0.0321,0.0325,0.0358,0.0332,0.0366,0.038,0.0357,0.0383,0.0385,0.0409,0.0412,0.0413,0.0418,0.042,0.0437,0.0437,0.0438,0.0438,0,0,0,0,0,0,0,0.0251,0.0256,0.0308,0.0319,0.0323,0.0327,0.0333,0.0338,0.0374,0.0359,0.0363,0.0372,0.0411,0.0412,0.0415,0.0421,0.0437,0.0437,0.0438,0.0438,0.047,0.047,0,0,0,0,0,0,0.0252,0.0254,0.0307,0.031,0.0295,0.0328,0.0334,0.0344,0.0374,0.038,0.0371,0.0374,0.041,0.0414,0.0417,0.0449,0.0438,0.0438,0.0439,0.0469,0.047,0.047,0,0,0,0,0,0,0.025,0.0256,0.0305,0.0285,0.0292,0.0328,0.0338,0.0344,0.0366,0.0383,0.039,0.0389,0.0412,0.0416,0.0435,0.045,0.0439,0.044,0.0469,0.047,0.047,0.048,0,0,0,0,0,0,0.0247,0.0255,0.026,0.0285,0.0293,0.032,0.0337,0.0344,0.037,0.0374,0.04,0.0405,0.0413,0.0434,0.0436,0.0451,0.044,0.0469,0.0469,0.047,0.0479,0.0481,0.0482,0,0,0,0,0,0.0245,0.0249,0.026,0.0266,0.03,0.032,0.0324,0.0351,0.037,0.0376,0.0396,0.0405,0.0439,0.0434,0.0437,0.0452,0.0468,0.0469,0.047,0.0479,0.048,0.0482,0,0,0,0,0,0,0.0217,0.0254,0.0267,0.0281,0.0303,0.0329,0.034,0.0358,0.0378,0.039,0.0405,0.0411,0.0434,0.0438,0.0433,0.0463,0.0457,0.0458,0.0463,0.0464,0.0466,0.0472,0.0441,0,0,0,0,0,0.0213,0.0228,0.026,0.027,0.0285,0.0314,0.0327,0.0349,0.0371,0.0383,0.0402,0.0422,0.0434,0.0446,0.0456,0.0469,0.0477,0.0482,0.0483,0.0484,0.0491,0.0506,0.0509,0.0472,0.0472,0.0472,0,0,0.0201,0.0226,0.0232,0.0265,0.0287,0.0309,0.0325,0.0352,0.0372,0.0383,0.0416,0.0427,0.0438,0.0456,0.0467,0.0465,0.0499,0.0485,0.0486,0.0492,0.0507,0.051,0.0513,0.0473,0.0473,0.0473,0,0,0.0192,0.0213,0.0227,0.0249,0.029,0.0309,0.0322,0.0359,0.0379,0.0403,0.0419,0.0438,0.0459,0.047,0.0477,0.049,0.0504,0.0499,0.0515,0.0528,0.0532,0.0535,0.055,0.0555,0.0502,0.0502,0.0502,0,0.0177,0.0204,0.0231,0.0256,0.0277,0.0313,0.0335,0.0355,0.0393,0.0412,0.0418,0.046,0.0464,0.049,0.0495,0.0494,0.0508,0.0507,0.053,0.0533,0.0536,0.0552,0.0556,0.0503,0.0503,0.0503,0.0503,0,0.0184,0.0208,0.0219,0.0264,0.0286,0.0311,0.0349,0.0374,0.0404,0.0428,0.0465,0.0474,0.0502,0.0504,0.0503,0.053,0.0536,0.0528,0.0526,0.0541,0.0556,0.0561,0.0504,0.0503,0.0503,0.0503,0,0,0.0152,0.0212,0.0218,0.024,0.0298,0.0315,0.0352,0.0394,0.0426,0.0457,0.0494,0.0509,0.0528,0.0536,0.0543,0.0554,0.0577,0.0554,0.0554,0.057,0.0618,0.0608,0.0612,0.0579,0.058,0.0581,0.0622,0,0.0153,0.019,0.0226,0.0262,0.0287,0.0332,0.0362,0.0405,0.0444,0.0486,0.0508,0.0543,0.0537,0.0557,0.0567,0.0574,0.059,0.0568,0.0602,0.0603,0.0593,0.0617,0.0583,0.0625,0.0626,0.0627,0.0628,0,0.0156,0.0183,0.0212,0.0271,0.0287,0.0309,0.0373,0.041,0.0473,0.0507,0.0552,0.0578,0.0607,0.0596,0.0625,0.0615,0.0622,0.0624,0.0626,0.0617,0.0602,0.0608,0.0636,0.0635,0.0635,0.0634,0.0634,0,0.0124,0.0178,0.0198,0.0216,0.0282,0.0302,0.0343,0.0411,0.045,0.0527,0.0568,0.0609,0.0644,0.0649,0.0662,0.0649,0.0694,0.0671,0.0672,0.0671,0.0663,0.0659,0.0697,0.0697,0.0697,0.0697,0.0697,0,0.0117,0.0137,0.0179,0.0192,0.0216,0.028,0.032,0.0375,0.0455,0.051,0.0578,0.0626,0.0662,0.0695,0.0684,0.0699,0.0713,0.0685,0.0685,0.0666,0.0662,0.0666,0.0662,0.0698,0.0698,0.0698,0.0697,0,0.0084,0.0114,0.0134,0.0185,0.0199,0.0217,0.0293,0.0328,0.0426,0.0502,0.0532,0.0645,0.0709,0.0739,0.0764,0.0739,0.0739,0.0742,0.0735,0.0732,0.07,0.0696,0.0741,0.0741,0.0741,0.0741,0.0741,0,0.0076,0.0077,0.0106,0.0106,0.0125,0.0161,0.0187,0.0289,0.0338,0.0505,0.0537,0.0655,0.072,0.0756,0.0782,0.0788,0.0778,0.0768,0.072,0.0712,0.0707,0.0702,0.0698,0.0741,0.0741,0.0741,0.0741,0,0.0046,0.0044,0.0054,0.0055,0.0065,0.0092,0.0149,0.0187,0.0327,0.0405,0.0542,0.0616,0.071,0.0752,0.0787,0.0774,0.076,0.0768,0.0767,0.0722,0.0712,0.0707,0.0702,0.0741,0.0741,0.0741,0.0741,0,0.0009,-0.0002,0.0001,0.0005,0.0013,0.0046,0.0081,0.0166,0.0239,0.0435,0.0467,0.061,0.0702,0.0748,0.0757,0.0774,0.0756,0.0705,0.0707,0.0707,0.0679,0.0662,0.0685,0,0,0,0,0,-0.0026,-0.0037,-0.0041,-0.0026,-0.0013,0.0008,0.0069,0.012,0.0246,0.0325,0.041,0.05,0.0606,0.0666,0.0678,0.0732,0.074,0.074,0.0676,0.0742,0.0742,0.0714,0,0,0,0,0,0,-0.0054,-0.0063,-0.0054,-0.0047,-0.0032,-0.0001,0.0041,0.0127,0.0183,0.0311,0.0366,0.0456,0.0551,0.0598,0.0666,0.0682,0.0627,0.0812,0.081,0.0742,0.0742,0.0742,0.0713,0,0,0,0,0]},{"header":{"parameterUnit":"m.s-1","parameterCategory":2,"la1":30.2991,"la2":30.254,"lo1":-89.0895,"lo2":-89.0444,"dy":0.0017,"dx":0.0017,"nx":28,"ny":28,"refTime":"2025-07-11T21:00:00:Z","depth":"4","parameterNumber":3,"parameterNumberName":"V-component_of_CURRENTS"},"data":[0,0,0,0,0,0,0,0,0,0,0,0,0,0,0,0,0,0,0,0,0,0,0,0,0,0,0,0,0,0,0,0,0,0,0,0,0,0,0,0,0,0,0,0,0,0,0,0,0,0,0,0,0,0,0,0,0,0,-0.0163,-0.0163,0,-0.0202,-0.0202,-0.0203,-0.0256,-0.0257,-0.0258,-0.0258,-0.0353,-0.0355,-0.0356,0,0,0,0,0,0,0,0,0,0,0,0,0,-0.0142,-0.0142,-0.0163,-0.0163,-0.0164,-0.0202,-0.0202,-0.0203,-0.0256,-0.0257,-0.0258,-0.0259,-0.0353,-0.0355,-0.0357,0,0,0,0,0,0,0,0,0,0,0,0,0,-0.0163,-0.0142,-0.0163,-0.0195,-0.0198,-0.0201,-0.0202,-0.0203,-0.0255,-0.0257,-0.0258,-0.0259,-0.0352,-0.0354,-0.0357,-0.0346,0,0,-0.0365,-0.0366,0,0,0,0,0,0,0,0,-0.0162,-0.0164,-0.0189,-0.0192,-0.0196,-0.0225,-0.023,-0.0253,-0.0255,-0.0233,-0.0258,-0.026,-0.0315,-0.032,-0.0324,-0.035,-0.0354,-0.0365,-0.0366,-0.0367,-0.0368,0,0,0,0,0,0,0,-0.016,-0.0162,-0.0178,-0.019,-0.0194,-0.021,-0.0214,-0.0234,-0.0267,-0.0235,-0.0239,-0.0243,-0.0317,-0.0321,-0.0326,-0.0355,-0.0365,-0.0367,-0.0369,-0.037,-0.0477,-0.0478,0,0,0,0,0,0,-0.0153,-0.0161,-0.0177,-0.0179,-0.0182,-0.0209,-0.0214,-0.0214,-0.0266,-0.0274,-0.0242,-0.0246,-0.0316,-0.0323,-0.033,-0.0402,-0.0367,-0.037,-0.0371,-0.0476,-0.0477,-0.0479,0,0,0,0,0,0,-0.0153,-0.0154,-0.0175,-0.0171,-0.0175,-0.0208,-0.0208,-0.0215,-0.0245,-0.027,-0.028,-0.027,-0.0317,-0.0327,-0.0376,-0.0403,-0.0371,-0.0373,-0.0474,-0.0476,-0.0478,-0.0493,0,0,0,0,0,0,-0.0152,-0.0154,-0.0162,-0.0171,-0.0175,-0.0197,-0.0207,-0.0214,-0.0244,-0.025,-0.0296,-0.0305,-0.0319,-0.0372,-0.0378,-0.0406,-0.0375,-0.0472,-0.0475,-0.0477,-0.0491,-0.0495,-0.0499,0,0,0,0,0,-0.0151,-0.0162,-0.0162,-0.0165,-0.0182,-0.0198,-0.0203,-0.023,-0.0244,-0.0262,-0.0297,-0.0305,-0.0393,-0.0375,-0.0382,-0.0411,-0.0471,-0.0474,-0.0477,-0.0489,-0.0495,-0.0499,0,0,0,0,0,0,-0.0167,-0.0168,-0.0169,-0.0182,-0.0196,-0.0208,-0.023,-0.0241,-0.0279,-0.0294,-0.0317,-0.0328,-0.0384,-0.0394,-0.0374,-0.0451,-0.0435,-0.044,-0.0442,-0.0447,-0.0451,-0.0441,-0.0377,0,0,0,0,0,-0.0169,-0.0175,-0.0179,-0.0193,-0.02,-0.0216,-0.023,-0.0245,-0.0272,-0.0291,-0.0322,-0.0359,-0.0395,-0.042,-0.0451,-0.0486,-0.0491,-0.0512,-0.0517,-0.052,-0.0518,-0.0551,-0.0558,-0.0489,-0.0489,-0.0489,0,0,-0.0179,-0.0181,-0.0186,-0.0196,-0.021,-0.0227,-0.0229,-0.0257,-0.028,-0.0295,-0.0349,-0.0376,-0.0409,-0.0456,-0.0481,-0.0472,-0.0542,-0.0524,-0.0526,-0.0522,-0.0555,-0.0561,-0.0567,-0.0491,-0.049,-0.049,0,0,-0.0202,-0.0205,-0.0218,-0.0227,-0.0246,-0.0253,-0.0265,-0.0286,-0.031,-0.035,-0.0374,-0.0415,-0.0467,-0.0494,-0.0514,-0.0558,-0.0564,-0.0577,-0.0589,-0.0621,-0.0627,-0.0632,-0.0641,-0.0646,-0.0577,-0.0577,-0.0577,0,-0.022,-0.0226,-0.0228,-0.0243,-0.0254,-0.0267,-0.0286,-0.0308,-0.0346,-0.0363,-0.0376,-0.0455,-0.0484,-0.0535,-0.0555,-0.0567,-0.058,-0.0564,-0.0625,-0.063,-0.0635,-0.0643,-0.0649,-0.0578,-0.0578,-0.0578,-0.0578,0,-0.0246,-0.0256,-0.0269,-0.0286,-0.03,-0.0319,-0.0338,-0.0362,-0.0387,-0.0405,-0.0463,-0.0499,-0.0546,-0.0564,-0.0574,-0.0627,-0.0622,-0.0626,-0.0607,-0.0642,-0.0649,-0.0655,-0.058,-0.058,-0.0579,-0.0579,0,0,-0.0281,-0.0284,-0.0291,-0.0289,-0.032,-0.0325,-0.0367,-0.0394,-0.0413,-0.0461,-0.0494,-0.0559,-0.0578,-0.0602,-0.0625,-0.0647,-0.0691,-0.0652,-0.0654,-0.0652,-0.0751,-0.0668,-0.0666,-0.0709,-0.071,-0.0711,-0.074,0,-0.0306,-0.0319,-0.0323,-0.0343,-0.0349,-0.0362,-0.039,-0.0417,-0.0449,-0.0484,-0.0528,-0.0575,-0.0596,-0.062,-0.0654,-0.0685,-0.0709,-0.0681,-0.0726,-0.0727,-0.0641,-0.0671,-0.0715,-0.0744,-0.0746,-0.0747,-0.0747,0,-0.0341,-0.0334,-0.0352,-0.0342,-0.0348,-0.0369,-0.0394,-0.0423,-0.0474,-0.0498,-0.0554,-0.0589,-0.0651,-0.0653,-0.0731,-0.0716,-0.0739,-0.0751,-0.0753,-0.0672,-0.0655,-0.0705,-0.0758,-0.0757,-0.0756,-0.0756,-0.0755,0,-0.0353,-0.0357,-0.0361,-0.0364,-0.0366,-0.0381,-0.0396,-0.0437,-0.0442,-0.052,-0.0521,-0.0615,-0.0642,-0.0709,-0.0733,-0.0751,-0.0782,-0.0814,-0.0756,-0.075,-0.0808,-0.0803,-0.0859,-0.0859,-0.0859,-0.0859,-0.0859,0,-0.0375,-0.0378,-0.0364,-0.0367,-0.0361,-0.0382,-0.0395,-0.0422,-0.0453,-0.0445,-0.0537,-0.0524,-0.0655,-0.0679,-0.0733,-0.0744,-0.0791,-0.0758,-0.0755,-0.0814,-0.0809,-0.0812,-0.0806,-0.086,-0.086,-0.086,-0.086,0,-0.0392,-0.0391,-0.0381,-0.0372,-0.0369,-0.0374,-0.0366,-0.0363,-0.0406,-0.04,-0.042,-0.0469,-0.051,-0.0592,-0.0675,-0.071,-0.0748,-0.073,-0.0757,-0.0756,-0.0705,-0.07,-0.072,-0.0717,-0.0715,-0.0713,-0.0712,0,-0.0396,-0.0398,-0.0375,-0.0354,-0.0353,-0.0349,-0.0334,-0.0353,-0.0338,-0.0332,-0.0312,-0.0348,-0.0385,-0.0435,-0.0537,-0.0645,-0.0645,-0.068,-0.0734,-0.0696,-0.0693,-0.0691,-0.0689,-0.0708,-0.0707,-0.0707,-0.0706,0,-0.0388,-0.0392,-0.037,-0.0336,-0.0314,-0.0274,-0.0259,-0.0234,-0.024,-0.025,-0.021,-0.0253,-0.0276,-0.0379,-0.0442,-0.0515,-0.0685,-0.0658,-0.0665,-0.0716,-0.0682,-0.0681,-0.0681,-0.0699,-0.07,-0.07,-0.0701,0,-0.0374,-0.0355,-0.0335,-0.0302,-0.0269,-0.0227,-0.0214,-0.0172,-0.0158,-0.0153,-0.0118,-0.017,-0.0213,-0.0302,-0.0351,-0.0429,-0.0478,-0.0531,-0.0546,-0.0556,-0.0498,-0.043,-0.0366,0,0,0,0,0,-0.0355,-0.0331,-0.0294,-0.0259,-0.0229,-0.0219,-0.0166,-0.0151,-0.0135,-0.0094,-0.0114,-0.0128,-0.0207,-0.0234,-0.0301,-0.0339,-0.0507,-0.042,-0.058,-0.0656,-0.0665,-0.0617,0,0,0,0,0,0,-0.0334,-0.0307,-0.0289,-0.0239,-0.0219,-0.0183,-0.0155,-0.0136,-0.0113,-0.0102,-0.0137,-0.0152,-0.023,-0.0181,-0.0308,-0.0329,-0.0439,-0.0459,-0.0461,-0.0651,-0.0659,-0.0666,-0.062,0,0,0,0,0]}]]